Theta_e
340 338 333 328 326 326 326 325 322 319 316 313 311 313 317 322 313 315 320 325 327 327 327 325 320 319 320 321 322 329 326 317 316 329 329 330 330 331 330 327 328 329 331
339 337 333 327 325 326 326 323 319 316 313 312 312 310 313 313 313 320 324 326 327 327 327 325 321 319 322 322 324 327 322 314 314 317 321 328 329 327 323 320 320 327 329
339 338 333 327 326 327 326 322 317 314 311 311 309 310 313 314 320 322 323 325 325 326 325 322 321 323 324 323 324 323 315 315 315 316 319 325 327 327 326 321 320 321 323
339 338 332 329 328 328 326 322 317 313 312 309 310 313 314 316 318 320 322 325 325 325 325 318 318 321 321 322 322 315 315 316 317 317 319 322 325 324 323 321 320 319 318
338 338 333 334 329 328 326 320 317 312 312 312 312 318 315 318 319 316 319 324 326 326 322 316 315 315 317 318 317 314 316 315 315 315 317 320 323 324 323 320 318 320 322
339 337 334 332 328 329 324 319 315 317 310 313 314 318 323 323 319 315 319 320 322 325 320 316 315 314 314 317 316 317 316 315 314 317 320 323 324 324 325 323 321 323 323
338 336 334 328 328 328 323 318 318 311 311 313 320 321 324 321 315 314 315 318 318 317 318 317 316 315 315 314 317 316 314 313 312 313 315 320 324 324 325 325 321 321 322
336 335 333 330 330 327 320 318 313 316 312 321 323 323 321 316 314 314 315 314 317 319 319 319 317 316 315 315 314 313 311 311 311 311 314 320 322 323 323 323 320 323 323
331 330 332 330 325 320 318 316 316 311 318 318 320 317 314 314 314 315 315 315 317 319 319 319 319 318 316 314 313 312 311 310 310 311 315 319 320 321 320 319 320 320 321
329 328 330 328 320 322 322 321 315 313 316 318 314 313 313 313 315 315 315 316 317 318 319 318 318 316 314 313 312 311 311 310 309 310 310 318 319 319 318 317 316 316 315
322 323 321 319 318 320 320 316 314 317 316 313 313 314 314 314 315 315 316 317 318 319 319 319 316 314 312 311 310 310 310 309 309 309 309 313 315 318 318 316 313 315 315
323 321 321 320 318 317 315 318 313 311 313 314 314 314 315 315 315 316 317 318 320 321 321 317 314 312 311 309 309 308 308 308 308 308 309 310 312 315 318 317 316 316 315
322 323 321 319 320 320 320 318 310 312 315 315 316 320 320 316 316 318 322 322 320 318 315 313 311 311 310 309 308 308 307 306 306 308 308 309 308 313 315 317 316 314 313
321 322 322 321 320 321 326 320 313 316 316 318 323 325 324 323 322 321 322 318 316 313 312 312 311 310 309 308 308 307 306 306 305 304 304 304 305 309 313 317 315 313 311
322 320 320 322 325 328 324 318 313 317 318 321 323 325 325 325 324 318 317 315 314 313 313 311 309 308 308 308 307 306 306 304 304 303 303 303 303 306 312 315 313 311 310
325 322 321 324 327 329 324 318 315 319 323 325 327 326 325 323 322 319 316 315 314 312 310 309 309 309 308 307 306 304 304 303 302 302 301 302 305 309 312 310 309 309 309
326 326 323 322 328 329 323 318 318 323 327 328 327 326 324 322 319 317 316 314 312 311 310 309 309 308 308 306 305 303 302 301 301 300 300 301 307 308 308 307 307 307 306
324 324 324 327 328 328 324 319 324 328 329 328 327 326 323 319 317 317 315 312 310 310 309 309 308 307 306 305 304 302 300 299 298 298 298 298 303 305 304 303 302 299 299
323 324 325 326 328 326 323 321 325 329 329 328 327 326 322 320 318 316 312 310 310 309 308 308 307 305 303 303 302 300 298 297 297 296 296 296 296 295 295 295 295 295 296
327 326 326 328 328 327 326 327 326 328 328 328 326 324 324 320 315 313 311 310 309 309 308 305 303 303 302 302 300 299 297 296 296 295 295 295 294 294 294 293 293 292 293
330 329 328 329 328 329 327 327 327 328 326 325 324 322 319 315 313 311 310 309 308 306 303 303 302 302 301 301 300 298 296 295 295 294 294 294 294 293 292 292 291 291 291
330 330 328 329 330 329 327 327 326 324 322 320 317 314 313 312 311 310 309 307 303 301 299 299 299 301 301 301 300 298 295 296 295 293 293 294 293 293 292 291 291 291 291
330 330 329 328 328 326 325 324 322 319 315 313 312 311 311 310 309 308 305 301 298 297 296 296 297 299 300 298 299 299 295 295 293 294 293 293 293 292 291 291 290 290 289
328 329 328 327 326 325 324 322 320 316 312 312 311 310 309 308 306 303 301 298 297 296 296 297 299 300 301 299 298 298 297 295 293 292 293 293 292 292 291 290 290 290 289
328 328 328 327 326 325 323 321 319 314 313 312 311 309 307 304 301 300 298 297 296 295 296 298 300 300 299 298 298 297 296 295 294 290 289 291 292 292 291 290 290 290 289
326 327 327 326 326 325 323 321 319 316 313 311 309 307 303 301 299 298 297 296 295 297 298 299 299 298 297 296 295 295 295 294 293 291 288 288 289 291 291 290 290 289 289
Wind_Speed
29 32 31 32 32 33 34 33 31 30 29 28 29 29 27 27 30 33 32 31 30 27 25 25 24 21 21 22 24 26 22 22 22 24 21 21 21 20 20 20 19 19 19
36 34 33 32 32 32 33 32 32 29 28 29 30 30 29 30 33 33 33 30 29 28 26 26 25 24 25 25 25 25 22 23 23 22 22 20 20 19 20 20 19 19 18
32 33 31 32 33 33 32 31 31 31 28 29 30 29 30 33 32 33 33 31 30 28 27 28 27 29 26 26 24 22 22 22 23 23 23 22 20 19 18 18 19 19 19
29 30 30 31 32 32 31 29 28 29 29 30 29 29 31 32 32 34 33 31 30 28 27 28 29 26 24 23 21 21 22 22 22 23 22 21 20 17 17 17 19 19 20
26 28 28 27 30 31 30 29 27 29 30 28 28 27 31 31 30 33 31 29 28 26 26 27 27 25 23 21 21 22 20 20 19 20 21 20 20 17 17 17 18 18 19
21 25 25 27 29 29 29 27 27 30 30 27 26 27 26 27 27 30 29 27 26 24 23 25 25 24 25 23 23 20 19 18 18 18 18 18 17 14 15 14 15 15 16
22 22 23 25 27 28 27 27 27 28 28 26 26 27 26 27 28 27 26 24 24 24 23 22 21 21 22 22 20 18 16 15 15 15 15 15 14 13 13 13 12 12 14
21 22 19 17 23 24 27 26 26 25 25 24 25 26 27 27 25 24 22 20 20 20 19 18 18 19 18 18 16 15 15 14 13 13 14 14 13 13 13 13 13 13 14
21 20 23 22 22 20 22 24 24 23 23 23 24 24 25 24 22 21 19 16 17 17 17 17 15 15 15 15 14 13 13 13 13 13 13 12 12 12 13 14 14 15 14
25 27 30 28 34 17 18 18 20 20 21 23 23 24 23 21 20 18 17 14 15 13 14 13 14 14 14 13 12 11 10 10 11 12 11 10 9 9 11 12 13 13 14
33 35 43 42 29 22 19 16 18 20 22 22 22 22 22 19 17 15 14 13 12 11 11 11 12 14 13 13 12 9 8 8 9 8 8 8 8 7 8 9 10 11 12
28 39 44 36 30 31 23 13 16 16 17 20 22 21 19 16 15 13 11 9 9 9 9 12 13 12 11 11 10 9 10 8 6 4 5 6 8 6 5 7 8 10 10
25 26 31 42 29 27 27 11 12 16 18 20 19 17 17 15 13 12 11 10 12 13 14 13 12 9 8 9 10 11 11 10 10 7 5 4 4 6 3 4 8 10 10
26 38 38 38 33 22 15 15 16 19 20 20 19 16 14 14 13 12 14 15 14 14 12 10 9 9 9 9 9 9 9 9 8 8 7 7 5 4 2 2 7 8 9
21 27 34 30 23 18 14 15 17 19 19 17 17 16 15 14 14 15 15 14 13 10 8 7 8 8 8 8 8 7 7 7 8 8 8 8 3 3 3 3 5 6 7
21 27 29 24 19 16 15 15 18 19 18 19 17 15 15 16 14 15 14 12 10 7 8 8 8 7 6 5 6 6 6 6 8 9 10 7 4 3 9 7 5 5 5
23 24 29 25 17 18 17 18 21 20 17 18 18 16 15 13 15 15 14 12 9 8 7 6 6 5 5 5 6 8 6 6 6 7 7 6 4 5 6 9 8 7 6
24 26 26 23 19 19 18 20 19 19 17 19 19 17 15 15 15 14 12 11 10 8 7 6 6 4 4 5 6 6 6 6 7 7 8 9 8 6 6 6 4 5 6
26 26 23 20 18 18 18 20 20 20 18 19 17 17 17 17 16 14 13 12 11 9 6 4 3 2 5 4 4 6 7 7 8 8 8 6 6 5 5 4 4 5 6
26 25 23 22 20 21 20 18 21 20 19 18 18 18 18 18 17 15 13 12 10 6 3 3 4 6 4 3 5 6 7 7 8 8 8 7 6 4 4 5 6 5 3
25 25 25 24 24 24 25 23 23 22 21 19 17 17 18 19 17 15 13 9 7 5 6 5 5 4 4 4 5 4 6 6 6 8 7 5 4 5 7 8 6 5 5
30 28 27 27 28 28 31 31 26 25 21 18 18 18 18 19 17 14 10 8 7 5 4 3 3 5 4 3 2 0 2 3 2 4 3 1 2 4 9 9 8 6 8
32 34 34 31 31 32 34 31 25 23 20 21 21 20 20 17 15 12 9 7 4 3 3 3 4 5 4 2 2 2 1 2 3 3 3 1 2 5 10 9 8 8 10
30 33 34 34 33 35 34 33 31 32 27 25 27 23 20 16 14 11 8 6 4 3 5 7 6 5 4 3 3 1 0 1 2 3 3 6 7 7 11 9 9 11 11
35 36 37 36 35 38 38 36 33 32 32 26 26 24 20 17 14 11 8 6 5 5 7 5 7 7 4 1 2 2 3 5 6 4 2 5 9 11 12 9 10 11 12
35 37 37 37 38 39 38 37 36 34 33 27 28 25 23 21 17 13 9 7 6 4 4 3 5 3 1 1 4 6 5 5 6 8 4 8 8 12 10 10 13 13 16
Wind_Direction
163 158 154 150 145 139 135 134 131 130 127 126 125 124 121 119 115 112 107 102 99 98 94 89 87 89 90 90 90 94 87 78 75 76 70 65 64 65 63 62 60 54 50
160 160 157 153 147 143 140 137 134 130 128 129 128 126 123 120 118 112 107 103 101 98 92 88 88 93 96 93 96 95 87 79 76 75 76 74 68 65 64 62 58 56 54
155 159 159 154 150 146 141 137 134 134 134 135 130 128 126 121 119 113 108 106 101 97 92 91 94 97 99 96 96 93 86 79 77 76 76 75 72 68 64 64 61 57 53
156 161 161 155 150 145 140 138 135 132 137 132 130 129 127 124 118 111 107 103 100 98 95 92 95 99 98 98 98 93 90 83 78 74 70 71 70 65 65 63 64 61 59
159 165 159 153 149 146 143 138 138 134 133 134 131 131 128 124 119 114 109 104 101 100 99 99 95 97 99 98 100 96 87 81 78 75 72 65 65 59 60 57 58 59 60
165 168 159 157 154 148 142 139 138 141 134 133 130 131 129 125 121 116 111 108 105 104 101 99 98 92 91 98 99 88 84 75 77 76 75 72 64 59 55 53 52 53 51
158 163 167 163 157 148 141 138 142 131 136 132 133 135 134 132 127 119 112 110 108 105 102 98 97 93 87 93 99 87 78 77 74 72 70 69 68 56 53 54 53 51 54
142 149 152 151 146 147 136 140 128 142 129 133 135 138 141 136 127 119 114 110 112 109 102 99 100 93 92 89 84 86 75 71 67 65 63 66 64 61 63 58 55 59 63
120 121 138 121 114 121 132 130 139 132 138 136 141 142 137 135 128 121 115 115 111 108 105 98 105 102 98 90 85 80 75 67 64 66 73 63 56 57 63 64 64 64 63
116 124 135 136 119 117 123 127 129 140 140 140 135 137 135 133 129 126 120 120 114 116 105 105 103 103 95 88 85 80 71 69 57 63 69 71 59 58 60 63 59 61 62
106 119 119 123 128 122 119 127 148 152 140 134 135 138 138 140 138 130 129 128 123 112 108 110 110 104 99 95 87 78 65 57 60 68 76 79 54 58 70 66 58 58 61
130 125 126 130 135 130 123 142 152 138 133 139 144 146 149 145 139 141 132 134 132 122 119 121 114 110 100 90 83 73 63 55 42 50 55 73 54 42 75 80 71 68 69
150 148 145 142 150 147 147 176 152 149 152 156 154 150 148 146 149 147 144 137 125 124 123 120 115 103 92 84 77 74 65 58 57 55 49 61 42 40 44 94 89 77 64
154 150 150 154 162 169 182 178 167 161 162 163 160 161 161 159 157 145 139 133 127 123 123 114 102 99 97 84 77 64 45 38 52 48 40 31 17 33 52 122 89 77 69
172 161 163 170 184 188 184 175 170 169 170 170 178 180 182 174 158 145 138 137 130 128 119 110 112 111 98 84 67 49 36 35 34 27 24 28 17 75 62 101 78 65 73
188 183 180 182 190 191 191 185 173 176 179 186 192 188 174 168 164 162 151 142 136 137 126 124 122 101 81 67 74 69 63 56 37 21 17 26 51 114 94 88 79 73 64
195 198 193 193 195 194 192 189 181 188 198 199 195 179 175 174 169 166 158 150 147 147 140 131 122 102 87 82 81 97 95 75 63 59 58 48 91 115 117 80 87 74 54
189 193 191 196 198 197 195 188 190 196 191 186 185 184 181 175 175 170 168 159 157 166 152 145 132 104 67 95 96 114 119 113 104 95 96 95 101 111 107 104 85 39 17
198 198 198 203 204 197 198 197 199 195 193 190 191 188 183 184 181 176 170 162 164 164 151 151 121 84 108 115 141 136 133 121 110 109 101 94 80 68 62 44 22 2 15
208 207 204 204 203 196 198 203 197 199 196 196 194 191 189 184 180 181 175 168 165 165 167 157 126 114 88 124 161 146 144 126 116 112 107 98 82 49 35 17 2 355 326
210 209 204 201 197 201 196 188 184 188 193 193 192 193 187 182 182 183 174 167 174 178 151 141 128 126 116 145 172 155 164 140 120 126 117 90 51 48 27 26 21 357 327
205 207 207 210 210 207 201 193 189 191 194 193 183 181 185 184 182 180 180 170 150 142 130 123 129 134 104 128 195 222 7 246 193 161 160 107 20 7 5 4 355 2 353
208 207 207 210 211 202 196 192 192 189 186 182 183 181 182 187 187 184 172 147 135 134 110 88 90 101 125 78 135 160 82 258 313 248 231 277 288 334 331 327 323 334 336
212 213 211 210 208 201 198 197 196 190 182 194 189 185 187 189 185 179 174 162 143 96 79 59 48 69 86 122 91 69 224 252 205 321 292 281 279 295 313 310 306 319 323
212 214 213 212 210 206 204 205 205 197 199 195 187 186 186 183 184 182 176 160 125 100 58 34 94 84 57 51 239 252 266 269 252 214 268 281 270 287 290 289 300 315 310
209 212 215 213 214 212 209 210 211 208 202 188 186 187 187 185 181 179 173 162 133 70 49 120 113 57 159 202 205 215 228 232 242 231 225 261 261 285 278 277 294 309 303